Find Starlink 5553

NORAD ID: 56333 Int'l Des: 2023-058 Owner: SPXS Country: US Constellation: starlink operational
LEOCIRCULARRETROGRADESSO

Live Position

Loading 3D Globe...

About Starlink 5553

Description loading...

Upcoming Passes

Passes for default location (London). Set your location on the main map for personalized predictions.

Altitude History

Loading altitude history...

Two-Line Element Set

1 56333U 23058S 26127.56818757 .00030013 00000-0 20843-2 0 9999
2 56333 97.5211 129.1200 0002250 102.8392 257.3087 15.05490201167054
Epoch: May 7, 2026 • Age: 8 hours

Current Status

Altitude 579.3 km
Velocity 7.57 km/s
Sub-Earth Point -78.45°S, 86.12°E
Launch Date Apr 27, 2023
Age 3 years
Type internet

Technical Details

Classification Payload
Mass 300.00 kg
Dry Mass 260.00 kg
Total Mass 300.00 kg
Length 0.20 m
Diameter 2.80 m
Span 9.00 m
Shape Box + pan
Manufacturer SPXS
Bus Type Starlink
Phase Status In Orbit
Owner/State SPXS/US

Most Searched